Terminal Aerodrome Forecast
Issued by NWS

Home | Current Version | Previous Version | Graphics & Text | Print | Product List | Glossary On
Versions: 1 2 3 4 5 6 7 8 9 10 11 12 13 14 15 16
709
FTUS42 KMHX 122212 AAB
TAFPGV
TAF AMD
KPGV 122212Z 1222/1318 00000KT P6SM OVC009
     FM130000 VRB03KT 4SM BR OVC020
     FM130400 29004KT P6SM SCT010
     FM131400 34012G21KT P6SM SKC
      AMD LTD TO CLD VIS AND WIND=

USA.gov is the U.S. government's official web portal to all federal, state and local government web resources and services.